Terminal Aerodrome Forecast
Issued by NWS

Home | Current Version | Previous Version | Text Only | Print | Product List | Glossary Off
Versions: 1 2 3 4 5 6 7 8 9 10 11 12 13 14 15 16 17 18 19 20 21 22 23 24 25 26 27

000
FTUS45 KGGW 241100
TAFGDV
TAF
KGDV 241130Z 2412/2512 27012KT P6SM VCSH BKN050 WS020/32045KT
     FM241500 29017G25KT P6SM BKN070
     FM250300 29014KT P6SM SCT200
      AMD LTD TO CLD VIS AND WIND=

USA.gov is the U.S. government's official web portal to all federal, state and local government web resources and services.